| time (UTC) | temp C | wind direction | speed KPH | gust KPH | rain 1hr cm | rain 24hr cm | rain mn cm | humidity % | barometer mb |
| 20260503200056 | 25 | 50 | 3.2 | 12.9 | 0.00 | 0.00 | 0.00 | 31 | 1012.1 |
| 20260503194558 | 25 | 80 | 4.8 | 14.5 | 0.00 | 0.00 | 0.00 | 32 | 1012.3 |
| 20260503193048 | 24 | 229 | 3.2 | 12.9 | 0.00 | 0.00 | 0.00 | 31 | 1012.5 |
| 20260503191547 | 25 | 65 | 4.8 | 16.1 | 0.00 | 0.00 | 0.00 | 31 | 1012.5 |
| 20260503190041 | 24 | 125 | 3.2 | 14.5 | 0.00 | 0.00 | 0.00 | 36 | 1012.6 |
| 20260503184537 | 23 | 103 | 4.8 | 14.5 | 0.00 | 0.00 | 0.00 | 35 | 1012.7 |
| 20260503183035 | 22 | 78 | 4.8 | 14.5 | 0.00 | 0.00 | 0.00 | 37 | 1012.7 |
| 20260503181533 | 22 | 113 | 4.8 | 17.7 | 0.00 | 0.00 | 0.00 | 36 | 1012.8 |
| 20260503180032 | 22 | 65 | 4.8 | 12.9 | 0.00 | 0.00 | 0.00 | 36 | 1012.8 |
| 20260503174528 | 21 | 96 | 4.8 | 20.9 | 0.00 | 0.00 | 0.00 | 39 | 1013.0 |
| 20260503173028 | 21 | 28 | 4.8 | 19.3 | 0.00 | 0.00 | 0.00 | 41 | 1013.2 |
| 20260503171524 | 21 | 123 | 4.8 | 17.7 | 0.00 | 0.00 | 0.00 | 40 | 1013.3 |
| 20260503081520 | 13 | 139 | 0.0 | 0.0 | 0.00 | 0.00 | 0.00 | 54 | 1013.6 |
| 20260503071506 | 15 | 138 | 0.0 | 1.6 | 0.00 | 0.00 | 0.00 | 47 | 1013.5 |
| 20260503054502 | 17 | 138 | 0.0 | 3.2 | 0.00 | 0.00 | 0.00 | 40 | 1013.4 |
| 20260503053002 | 17 | 134 | 0.0 | 4.8 | 0.00 | 0.00 | 0.00 | 39 | 1013.2 |
| 20260503051600 | 18 | 108 | 0.0 | 6.4 | 0.00 | 0.00 | 0.00 | 36 | 1013.2 |
| 20260503044600 | 18 | 148 | 0.0 | 4.8 | 0.00 | 0.00 | 0.00 | 35 | 1013.1 |
| 20260503043104 | 18 | 128 | 0.0 | 6.4 | 0.00 | 0.00 | 0.00 | 35 | 1012.9 |
| 20260503041558 | 18 | 192 | 1.6 | 6.4 | 0.00 | 0.00 | 0.00 | 36 | 1012.8 |
| 20260503040113 | 18 | 121 | 0.0 | 4.8 | 0.00 | 0.00 | 0.00 | 36 | 1012.6 |
| 20260503034558 | 19 | 150 | 1.6 | 8.0 | 0.00 | 0.00 | 0.00 | 36 | 1012.4 |
| 20260503033056 | 19 | 138 | 1.6 | 6.4 | 0.00 | 0.00 | 0.00 | 35 | 1012.3 |
| 20260503031605 | 20 | 127 | 1.6 | 6.4 | 0.00 | 0.00 | 0.00 | 35 | 1012.2 |
| 20260503030054 | 20 | 312 | 1.6 | 9.7 | 0.00 | 0.00 | 0.00 | 34 | 1012.2 |
| 20260503024555 | 20 | 157 | 3.2 | 12.9 | 0.00 | 0.00 | 0.00 | 34 | 1012.0 |
| 20260503023054 | 21 | 132 | 1.6 | 4.8 | 0.00 | 0.00 | 0.00 | 32 | 1012.0 |
| 20260503021553 | 21 | 74 | 3.2 | 11.3 | 0.00 | 0.00 | 0.00 | 34 | 1012.1 |
| 20260503020054 | 21 | 85 | 3.2 | 9.7 | 0.00 | 0.00 | 0.00 | 33 | 1012.1 |
| 20260503014607 | 21 | 234 | 4.8 | 16.1 | 0.00 | 0.00 | 0.00 | 31 | 1012.2 |
| 20260503013050 | 22 | 101 | 3.2 | 14.5 | 0.00 | 0.00 | 0.00 | 32 | 1012.2 |
| 20260503011555 | 22 | 67 | 3.2 | 14.5 | 0.00 | 0.00 | 0.00 | 31 | 1012.4 |
| 20260503010048 | 22 | 90 | 4.8 | 19.3 | 0.00 | 0.00 | 0.00 | 31 | 1012.3 |
| 20260503004548 | 23 | 89 | 6.4 | 16.1 | 0.00 | 0.00 | 0.00 | 29 | 1012.5 |
| 20260503003047 | 23 | 92 | 3.2 | 14.5 | 0.00 | 0.00 | 0.00 | 31 | 1012.4 |
| 20260503001555 | 23 | 268 | 4.8 | 16.1 | 0.00 | 0.00 | 0.00 | 32 | 1012.5 |
| 20260503000043 | 23 | 236 | 1.6 | 12.9 | 0.00 | 0.00 | 0.00 | 33 | 1012.6 |
| 20260502234543 | 23 | 195 | 4.8 | 19.3 | 0.00 | 0.00 | 0.00 | 32 | 1012.7 |
| 20260502233037 | 23 | 21 | 1.6 | 17.7 | 0.00 | 0.00 | 0.00 | 32 | 1012.9 |
| 20260502231536 | 23 | 239 | 4.8 | 19.3 | 0.00 | 0.00 | 0.00 | 33 | 1013.0 |
| 20260502230036 | 23 | 9 | 4.8 | 19.3 | 0.00 | 0.00 | 0.00 | 34 | 1013.3 |
| 20260502224533 | 23 | 277 | 3.2 | 16.1 | 0.00 | 0.00 | 0.00 | 35 | 1013.7 |
| 20260502223028 | 23 | 355 | 3.2 | 19.3 | 0.00 | 0.00 | 0.00 | 35 | 1013.8 |
| 20260502221526 | 23 | 112 | 6.4 | 19.3 | 0.00 | 0.00 | 0.00 | 34 | 1014.0 |
| 20260502220028 | 23 | 355 | 6.4 | 24.1 | 0.00 | 0.00 | 0.00 | 35 | 1014.1 |
| 20260502214523 | 22 | 283 | 3.2 | 22.5 | 0.00 | 0.00 | 0.00 | 38 | 1014.3 |
| 20260502213021 | 22 | 128 | 4.8 | 22.5 | 0.00 | 0.00 | 0.00 | 36 | 1014.5 |
| 20260502211519 | 22 | 61 | 4.8 | 19.3 | 0.00 | 0.00 | 0.00 | 38 | 1014.6 |
| 20260502210015 | 22 | 59 | 3.2 | 16.1 | 0.00 | 0.00 | 0.00 | 40 | 1014.8 |
| 20260502204514 | 22 | 5 | 6.4 | 16.1 | 0.00 | 0.00 | 0.00 | 40 | 1014.9 |
| 20260502203010 | 21 | 55 | 4.8 | 16.1 | 0.00 | 0.00 | 0.00 | 42 | 1015.0 |
| 20260502201509 | 21 | 55 | 3.2 | 16.1 | 0.00 | 0.00 | 0.00 | 41 | 1015.2 |